Weather History for Middletown, PA

Change the Weather History Date:

Thursday, April 11, 2013

  Actual Average Record
Temperature  
Mean Temperature 64 °F 51 °F  
Max Temperature 75 °F 61 °F 84 °F (2011)
Min Temperature 52 °F 40 °F 26 °F (1909)
Degree Days  
Heating Degree Days 1 15  
Month to date heating degree days 156 180  
Since 1 July heating degree days 4756 4891  
Cooling Degree Days 0 0  
Month to date cooling degree days 7 0  
Year to date cooling degree days 7 1  
Growing Degree Days 14 (Base 50)    
Moisture  
Dew Point 55 °F    
Average Humidity 75    
Maximum Humidity 93    
Minimum Humidity 57    
Precipitation  
Precipitation T in 0.10 in 1.04 in (1894)
Month to date precipitation 0.10 1.17  
Year to date precipitation 7.49 9.81  
Snow  
Snow 0.00 in - - ()
Month to date snowfall T  
Since 1 July snowfall 17.0  
Snow Depth 0.00 in    
Sea Level Pressure  
Sea Level Pressure 29.84 in    
Wind  
Wind Speed 9 mph (ENE)    
Max Wind Speed 23 mph    
Max Gust Speed 29 mph    
Visibility 10 miles    
Events Rain    
T = Trace of Precipitation, MM = Missing Value Source: NWS Daily Summary

Daily Weather History Graph

Daily Weather History Graph

Search for Another Location

Airport:

Trip Planner

Search our weather history database for the weather conditions in past years. The results will help you decide how hot, cold, wet, or windy it might be!

Date:

Astronomy

Apr. 11, 2013 Rise Set
Actual Time 6:34 AM EDT 7:41 PM EDT
Civil Twilight 6:06 AM EDT 8:09 PM EDT
Nautical Twilight 5:33 AM EDT 8:43 PM EDT
Astronomical Twilight 4:58 AM EDT 9:18 PM EDT
Moon 7:04 AM EDT (4/11) 9:14 PM EDT (4/11)
Length of Visible Light 14h 03m
Length of Day
13h 07m
New Moon, 2% of the Moon is Illuminated
Apr 11
New Moon
Apr 18
First Quarter
Apr 25
Full
May 2
Last Quarter
May 9
New

Hourly Weather History & Observations

Time (EDT) Temp. Dew Point Humidity Pressure Visibility Wind Dir Wind Speed Gust Speed Precip Events Conditions
12:56 AM 64.9 °F 57.0 °F 75% 29.86 in 10.0 mi NNW 9.2 mph - 0.00 in Rain Light Rain
1:56 AM 64.0 °F 55.9 °F 75% 29.81 in 10.0 mi Calm Calm - 0.00 in   Mostly Cloudy
2:56 AM 63.0 °F 55.9 °F 78% 29.80 in 10.0 mi Calm Calm - N/A   Mostly Cloudy
3:56 AM 61.0 °F 57.0 °F 87% 29.83 in 10.0 mi Calm Calm - N/A   Mostly Cloudy
4:56 AM 57.9 °F 55.0 °F 90% 29.86 in 10.0 mi Calm Calm - N/A   Scattered Clouds
5:56 AM 57.9 °F 55.0 °F 90% 29.86 in 10.0 mi Calm Calm - N/A   Mostly Cloudy
6:56 AM 57.9 °F 55.9 °F 93% 29.86 in 10.0 mi NE 5.8 mph - N/A   Mostly Cloudy
7:56 AM 61.0 °F 57.0 °F 87% 29.86 in 9.0 mi ESE 5.8 mph - N/A   Mostly Cloudy
8:56 AM 64.9 °F 57.0 °F 75% 29.87 in 10.0 mi East 3.5 mph - N/A   Mostly Cloudy
9:56 AM 66.9 °F 57.9 °F 73% 29.88 in 9.0 mi Calm Calm - N/A   Mostly Cloudy
10:56 AM 69.1 °F 57.9 °F 68% 29.88 in 10.0 mi Calm Calm - N/A   Mostly Cloudy
11:56 AM 73.9 °F 60.1 °F 62% 29.87 in 10.0 mi Variable 3.5 mph - N/A   Mostly Cloudy
12:56 PM 73.9 °F 60.1 °F 62% 29.84 in 10.0 mi NE 8.1 mph - N/A   Mostly Cloudy
1:56 PM 73.9 °F 59.0 °F 59% 29.81 in 10.0 mi ENE 12.7 mph - N/A   Mostly Cloudy
2:56 PM 73.0 °F 59.0 °F 61% 29.81 in 10.0 mi NE 9.2 mph - N/A   Overcast
3:56 PM 73.0 °F 57.9 °F 59% 29.80 in 10.0 mi NE 11.5 mph 27.6 mph N/A   Overcast
4:56 PM 69.1 °F 55.9 °F 63% 29.80 in 10.0 mi East 13.8 mph 19.6 mph N/A   Overcast
5:56 PM 64.0 °F 54.0 °F 70% 29.82 in 10.0 mi ENE 12.7 mph - N/A   Overcast
6:56 PM 64.0 °F 53.1 °F 67% 29.82 in 10.0 mi East 17.3 mph 24.2 mph N/A   Overcast
7:06 PM 64.4 °F 53.6 °F 68% 29.82 in 10.0 mi East 16.1 mph 21.9 mph N/A   Overcast
7:56 PM 62.1 °F 53.1 °F 72% 29.83 in 9.0 mi East 16.1 mph - N/A   Overcast
8:56 PM 59.0 °F 50.0 °F 72% 29.85 in 10.0 mi East 17.3 mph - N/A   Overcast
9:56 PM 55.9 °F 48.0 °F 75% 29.88 in 10.0 mi ESE 16.1 mph - N/A   Overcast
10:56 PM 55.0 °F 46.0 °F 72% 29.88 in 10.0 mi ESE 18.4 mph 25.3 mph N/A   Overcast
11:56 PM 53.1 °F 45.0 °F 74% 29.86 in 10.0 mi ESE 18.4 mph 27.6 mph N/A   Overcast